Weather History for Imperial, NE

Change the Weather History Date:

Monday, April 29, 2013

  Actual Average Record
Temperature  
Mean Temperature 67 °F 53 °F  
Max Temperature 84 °F 67 °F 90 °F (1934)
Min Temperature 49 °F 40 °F 18 °F (1908)
Degree Days  
Heating Degree Days 0 12  
Month to date heating degree days 607 486  
Cooling Degree Days 2 0  
Month to date cooling degree days 2 0  
Year to date cooling degree days 2 0  
Growing Degree Days 15 (Base 50)    
Moisture  
Dew Point 36 °F    
Average Humidity 41    
Maximum Humidity 66    
Minimum Humidity 16    
Precipitation  
Precipitation 0.00 in 0.08 in 1.93 in (2009)
Sea Level Pressure  
Sea Level Pressure 29.62 in    
Wind  
Wind Speed 10 mph (South)    
Max Wind Speed 23 mph    
Max Gust Speed 31 mph    
Visibility 9 miles    
Events      
T = Trace of Precipitation, MM = Missing Value Source: NWS Daily Summary

Daily Weather History Graph

Daily Weather History Graph

Search for Another Location

Airport:

Trip Planner

Search our weather history database for the weather conditions in past years. The results will help you decide how hot, cold, wet, or windy it might be!

Date:

Astronomy

Apr. 29, 2013 Rise Set
Actual Time 5:47 AM MDT 7:40 PM MDT
Civil Twilight 5:18 AM MDT 8:10 PM MDT
Nautical Twilight 4:42 AM MDT 8:45 PM MDT
Astronomical Twilight 4:04 AM MDT 9:24 PM MDT
Moon No Moon Rise 9:10 AM MDT (4/29)
Length of Visible Light 14h 51m
Length of Day
13h 52m
Waning Gibbous, 79% of the Moon is Illuminated
Apr 29
Waning Gibbous
May 2
Last Quarter
May 9
New
May 17
First Quarter
May 24
Full

Hourly Weather History & Observations

Time (MDT) Temp. Dew Point Humidity Pressure Visibility Wind Dir Wind Speed Gust Speed Precip Events Conditions
12:53 AM 54.0 °F 35.1 °F 49% 29.83 in 10.0 mi NW 6.9 mph - N/A   Clear
1:53 AM 54.0 °F 34.0 °F 47% 29.81 in 10.0 mi ENE 3.5 mph - N/A   Scattered Clouds
2:53 AM 54.0 °F 34.0 °F 47% 29.81 in 10.0 mi NNW 9.2 mph - N/A   Mostly Cloudy
3:53 AM 51.1 °F 36.0 °F 56% 29.79 in 10.0 mi Calm Calm - N/A   Clear
4:53 AM 53.1 °F 36.0 °F 52% 29.81 in 10.0 mi West 5.8 mph - N/A   Mostly Cloudy
5:53 AM 48.9 °F 37.0 °F 64% 29.76 in 10.0 mi SE 8.1 mph - N/A   Scattered Clouds
6:53 AM 50.0 °F 37.9 °F 63% 29.79 in 10.0 mi North 9.2 mph - N/A   Clear
7:53 AM 55.0 °F 37.9 °F 53% 29.78 in 10.0 mi NE 3.5 mph - N/A   Clear
8:53 AM 61.0 °F 37.9 °F 42% 29.76 in 10.0 mi SSE 9.2 mph - N/A   Clear
9:53 AM 64.9 °F 39.0 °F 39% 29.74 in 10.0 mi Variable 3.5 mph - N/A   Clear
10:53 AM 71.1 °F 37.9 °F 30% 29.71 in 10.0 mi South 15.0 mph - N/A   Clear
11:53 AM 75.0 °F 37.9 °F 26% 29.68 in 10.0 mi South 13.8 mph 20.7 mph N/A   Clear
12:53 PM 79.0 °F 39.0 °F 24% 29.62 in 10.0 mi South 17.3 mph 23.0 mph N/A   Clear
1:53 PM 81.0 °F 37.0 °F 21% 29.59 in 10.0 mi SSW 11.5 mph 25.3 mph N/A   Clear
2:53 PM 82.0 °F 35.1 °F 18% 29.54 in 10.0 mi SSW 18.4 mph 25.3 mph N/A   Partly Cloudy
3:53 PM 82.0 °F 32.0 °F 16% 29.51 in 10.0 mi SW 19.6 mph 31.1 mph N/A   Partly Cloudy
4:53 PM 81.0 °F 32.0 °F 17% 29.48 in 10.0 mi SSW 17.3 mph - N/A   Clear
5:53 PM 81.0 °F 33.1 °F 18% 29.47 in 10.0 mi South 17.3 mph 20.7 mph N/A   Clear
6:53 PM 75.9 °F 34.0 °F 22% 29.48 in 10.0 mi WSW 5.8 mph - N/A   Clear
7:34 PM 66.2 °F 39.2 °F 37% 29.53 in 1.5 mi SSE 6.9 mph - N/A   Haze
7:37 PM 66.2 °F 39.2 °F 37% 29.53 in 1.0 mi South 5.8 mph - N/A   Haze
7:45 PM 66.2 °F 37.4 °F 35% 29.53 in 2.0 mi South 4.6 mph - N/A   Haze
7:53 PM 66.0 °F 37.0 °F 34% 29.47 in 5.0 mi South 4.6 mph - N/A   Haze
8:53 PM 66.0 °F 35.1 °F 32% 29.47 in 10.0 mi South 4.6 mph - N/A   Clear
9:53 PM 63.0 °F 39.0 °F 41% 29.47 in 10.0 mi South 11.5 mph - N/A   Clear
10:53 PM 66.0 °F 36.0 °F 33% 29.45 in 10.0 mi South 15.0 mph - N/A   Clear
11:53 PM 62.1 °F 36.0 °F 38% 29.46 in 10.0 mi South 8.1 mph - N/A   Clear